Location: Bli��� Lhota
(48.7570°N, 14.0120°E)
Time: 05:54:26
(UTC+00:00)

NOSS 2-2 (E) - Pass Details

Date: 18 September 2020
Orbit: 469 x 1737 km, 63.3° (Epoch: 19 October)

Event Time Altitude Azimuth Distance (km) Brightness Sun altitude
Rises 19:12:50 0° 237° (WSW) 2,502 7.1 -20.3°
Reaches altitude 10° 19:14:54 10° 243° (WSW) 1,649 6.2 -20.6°
Maximum altitude 19:18:21 47° 319° (NW) 690 4.2 -21.1°
Drops below altitude 10° 19:22:24 10° 35° (NE) 1,938 6.0 -21.7°
Sets 19:25:00 0° 41° (NE) 3,007 7.0 -22.1°
